| time (UTC) | temp F | wind direction | speed MPH | gust MPH | rain 1hr in | rain 24hr in | rain mn in | humidity % | barometer mb |
| 20260507093243 | 45 | 163 | 0.0 | 0.0 | 0.00 | 0.00 | 0.00 | 76 | 1013.2 |
| 20260507092741 | 45 | 169 | 0.0 | 0.0 | 0.00 | 0.00 | 0.00 | 75 | 1013.2 |
| 20260507092236 | 46 | 165 | 0.0 | 0.0 | 0.00 | 0.00 | 0.00 | 74 | 1013.2 |
| 20260507091733 | 46 | 165 | 0.0 | 0.0 | 0.00 | 0.00 | 0.00 | 73 | 1013.0 |
| 20260507091230 | 46 | 157 | 0.0 | 1.0 | 0.00 | 0.00 | 0.00 | 73 | 1013.4 |
| 20260507090725 | 47 | 132 | 0.0 | 0.0 | 0.00 | 0.00 | 0.00 | 72 | 1013.4 |
| 20260507090222 | 46 | 173 | 0.0 | 3.0 | 0.00 | 0.00 | 0.00 | 72 | 1013.5 |
| 20260507085719 | 47 | 157 | 0.0 | 0.0 | 0.00 | 0.00 | 0.00 | 72 | 1013.4 |
| 20260507085216 | 47 | 170 | 0.0 | 0.0 | 0.00 | 0.00 | 0.00 | 71 | 1013.6 |
| 20260507084713 | 47 | 174 | 0.0 | 0.0 | 0.00 | 0.00 | 0.00 | 70 | 1013.5 |
| 20260507084209 | 47 | 177 | 0.0 | 1.0 | 0.00 | 0.00 | 0.00 | 71 | 1013.7 |
| 20260507083707 | 46 | 171 | 0.0 | 1.0 | 0.00 | 0.00 | 0.00 | 71 | 1013.8 |
| 20260507083203 | 46 | 169 | 0.0 | 0.0 | 0.00 | 0.00 | 0.00 | 71 | 1013.6 |
| 20260507082659 | 45 | 160 | 0.0 | 1.0 | 0.00 | 0.00 | 0.00 | 71 | 1013.8 |
| 20260507082155 | 45 | 168 | 0.0 | 0.0 | 0.00 | 0.00 | 0.00 | 71 | 1013.9 |
| 20260507081652 | 45 | 150 | 0.0 | 0.0 | 0.00 | 0.00 | 0.00 | 70 | 1013.9 |
| 20260507081143 | 44 | 169 | 0.0 | 0.0 | 0.00 | 0.00 | 0.00 | 70 | 1014.2 |
| 20260507080639 | 43 | 158 | 0.0 | 0.0 | 0.00 | 0.00 | 0.00 | 71 | 1014.1 |
| 20260507080136 | 43 | 165 | 0.0 | 0.0 | 0.00 | 0.00 | 0.00 | 71 | 1014.3 |
| 20260507075636 | 43 | 168 | 0.0 | 0.0 | 0.00 | 0.00 | 0.00 | 70 | 1014.3 |
| 20260507075133 | 42 | 171 | 0.0 | 0.0 | 0.00 | 0.00 | 0.00 | 70 | 1014.3 |
| 20260507074630 | 42 | 167 | 0.0 | 0.0 | 0.00 | 0.00 | 0.00 | 70 | 1014.4 |
| 20260507074128 | 42 | 169 | 0.0 | 0.0 | 0.00 | 0.00 | 0.00 | 70 | 1014.6 |
| 20260507073624 | 42 | 167 | 0.0 | 0.0 | 0.00 | 0.00 | 0.00 | 69 | 1014.5 |
| 20260507073120 | 42 | 168 | 0.0 | 0.0 | 0.00 | 0.00 | 0.00 | 69 | 1014.6 |
| 20260507072618 | 42 | 167 | 0.0 | 0.0 | 0.00 | 0.00 | 0.00 | 68 | 1014.4 |
| 20260507072115 | 42 | 171 | 0.0 | 0.0 | 0.00 | 0.00 | 0.00 | 68 | 1015.0 |
| 20260507071612 | 42 | 165 | 0.0 | 0.0 | 0.00 | 0.00 | 0.00 | 67 | 1014.7 |
| 20260507071109 | 42 | 166 | 0.0 | 0.0 | 0.00 | 0.00 | 0.00 | 66 | 1014.9 |
| 20260507070606 | 43 | 165 | 0.0 | 0.0 | 0.00 | 0.00 | 0.00 | 66 | 1014.9 |
| 20260507065559 | 42 | 168 | 0.0 | 0.0 | 0.00 | 0.00 | 0.00 | 66 | 1014.9 |
| 20260507065057 | 43 | 165 | 0.0 | 0.0 | 0.00 | 0.00 | 0.00 | 64 | 1015.2 |
| 20260507064554 | 43 | 166 | 0.0 | 0.0 | 0.00 | 0.00 | 0.00 | 62 | 1015.1 |
| 20260507064053 | 44 | 165 | 0.0 | 0.0 | 0.00 | 0.00 | 0.00 | 61 | 1015.2 |
| 20260507063550 | 44 | 165 | 0.0 | 0.0 | 0.00 | 0.00 | 0.00 | 60 | 1015.3 |
| 20260507063047 | 44 | 165 | 0.0 | 0.0 | 0.00 | 0.00 | 0.00 | 60 | 1015.2 |
| 20260507062543 | 44 | 172 | 0.0 | 0.0 | 0.00 | 0.00 | 0.00 | 59 | 1015.4 |
| 20260507062041 | 45 | 165 | 0.0 | 0.0 | 0.00 | 0.00 | 0.00 | 59 | 1015.4 |
| 20260507061538 | 45 | 166 | 0.0 | 0.0 | 0.00 | 0.00 | 0.00 | 58 | 1015.2 |
| 20260507061036 | 46 | 168 | 0.0 | 0.0 | 0.00 | 0.00 | 0.00 | 58 | 1015.4 |
| 20260507060534 | 46 | 167 | 0.0 | 0.0 | 0.00 | 0.00 | 0.00 | 56 | 1015.3 |
| 20260507060031 | 46 | 171 | 0.0 | 0.0 | 0.00 | 0.00 | 0.00 | 56 | 1015.3 |
| 20260507055531 | 45 | 175 | 0.0 | 0.0 | 0.00 | 0.00 | 0.00 | 58 | 1015.3 |
| 20260507055028 | 45 | 168 | 0.0 | 0.0 | 0.00 | 0.00 | 0.00 | 58 | 1015.5 |
| 20260507054524 | 44 | 167 | 0.0 | 0.0 | 0.00 | 0.00 | 0.00 | 60 | 1015.6 |
| 20260507054021 | 44 | 165 | 0.0 | 0.0 | 0.00 | 0.00 | 0.00 | 63 | 1015.6 |
| 20260507053519 | 44 | 165 | 0.0 | 0.0 | 0.00 | 0.00 | 0.00 | 63 | 1015.6 |
| 20260507053018 | 44 | 165 | 0.0 | 0.0 | 0.00 | 0.00 | 0.00 | 64 | 1015.5 |
| 20260507052515 | 44 | 161 | 0.0 | 0.0 | 0.00 | 0.00 | 0.00 | 64 | 1015.4 |
| 20260507052011 | 44 | 161 | 0.0 | 0.0 | 0.00 | 0.00 | 0.00 | 64 | 1015.7 |
| 20260507051509 | 44 | 165 | 0.0 | 0.0 | 0.00 | 0.00 | 0.00 | 62 | 1015.7 |
| 20260507051006 | 44 | 167 | 0.0 | 0.0 | 0.00 | 0.00 | 0.00 | 62 | 1015.7 |
| 20260507050502 | 44 | 165 | 0.0 | 0.0 | 0.00 | 0.00 | 0.00 | 63 | 1015.6 |
| 20260507045959 | 43 | 168 | 0.0 | 0.0 | 0.00 | 0.00 | 0.00 | 64 | 1015.6 |
| 20260507045455 | 43 | 167 | 0.0 | 0.0 | 0.00 | 0.00 | 0.00 | 65 | 1015.5 |
| 20260507044953 | 42 | 165 | 0.0 | 0.0 | 0.00 | 0.00 | 0.00 | 65 | 1015.7 |
| 20260507044449 | 43 | 167 | 0.0 | 0.0 | 0.00 | 0.00 | 0.00 | 65 | 1015.7 |
| 20260507043945 | 43 | 165 | 0.0 | 0.0 | 0.00 | 0.00 | 0.00 | 64 | 1015.7 |
| 20260507043442 | 43 | 167 | 0.0 | 0.0 | 0.00 | 0.00 | 0.00 | 64 | 1015.7 |
| 20260507042938 | 43 | 165 | 0.0 | 0.0 | 0.00 | 0.00 | 0.00 | 64 | 1015.8 |
| 20260507042435 | 44 | 165 | 0.0 | 0.0 | 0.00 | 0.00 | 0.00 | 60 | 1015.7 |
| 20260507041931 | 44 | 165 | 0.0 | 0.0 | 0.00 | 0.00 | 0.00 | 59 | 1015.9 |
| 20260507041427 | 44 | 165 | 0.0 | 0.0 | 0.00 | 0.00 | 0.00 | 58 | 1015.8 |
| 20260507040925 | 44 | 165 | 0.0 | 0.0 | 0.00 | 0.00 | 0.00 | 58 | 1015.9 |
| 20260507040421 | 44 | 166 | 0.0 | 0.0 | 0.00 | 0.00 | 0.00 | 58 | 1015.9 |
| 20260507035916 | 45 | 166 | 0.0 | 0.0 | 0.00 | 0.00 | 0.00 | 56 | 1016.0 |
| 20260507035413 | 45 | 167 | 0.0 | 0.0 | 0.00 | 0.00 | 0.00 | 56 | 1016.1 |
| 20260507034910 | 45 | 165 | 0.0 | 0.0 | 0.00 | 0.00 | 0.00 | 56 | 1016.1 |
| 20260507034407 | 46 | 165 | 0.0 | 0.0 | 0.00 | 0.00 | 0.00 | 55 | 1016.1 |
| 20260507033905 | 46 | 165 | 0.0 | 0.0 | 0.00 | 0.00 | 0.00 | 53 | 1016.0 |
| 20260507033403 | 46 | 168 | 0.0 | 0.0 | 0.00 | 0.00 | 0.00 | 53 | 1016.3 |
| 20260507032859 | 46 | 165 | 0.0 | 0.0 | 0.00 | 0.00 | 0.00 | 53 | 1016.2 |
| 20260507032356 | 46 | 165 | 0.0 | 0.0 | 0.00 | 0.00 | 0.00 | 52 | 1016.2 |
| 20260507031852 | 46 | 167 | 0.0 | 0.0 | 0.00 | 0.00 | 0.00 | 52 | 1016.1 |
| 20260507031349 | 46 | 167 | 0.0 | 0.0 | 0.00 | 0.00 | 0.00 | 51 | 1016.3 |
| 20260507030846 | 47 | 166 | 0.0 | 0.0 | 0.00 | 0.00 | 0.00 | 50 | 1016.4 |
| 20260507030343 | 48 | 165 | 0.0 | 0.0 | 0.00 | 0.00 | 0.00 | 48 | 1016.1 |
| 20260507025840 | 49 | 166 | 0.0 | 0.0 | 0.00 | 0.00 | 0.00 | 47 | 1016.1 |
| 20260507025337 | 49 | 166 | 0.0 | 0.0 | 0.00 | 0.00 | 0.00 | 47 | 1016.4 |
| 20260507024835 | 49 | 167 | 0.0 | 0.0 | 0.00 | 0.00 | 0.00 | 46 | 1016.2 |
| 20260507024332 | 48 | 165 | 0.0 | 0.0 | 0.00 | 0.00 | 0.00 | 46 | 1016.2 |
| 20260507023828 | 48 | 167 | 0.0 | 0.0 | 0.00 | 0.00 | 0.00 | 47 | 1016.2 |
| 20260507023325 | 48 | 166 | 0.0 | 0.0 | 0.00 | 0.00 | 0.00 | 47 | 1016.0 |
| 20260507022822 | 49 | 165 | 0.0 | 0.0 | 0.00 | 0.00 | 0.00 | 45 | 1016.0 |
| 20260507022318 | 50 | 165 | 0.0 | 0.0 | 0.00 | 0.00 | 0.00 | 45 | 1016.1 |
| 20260507021814 | 51 | 165 | 0.0 | 0.0 | 0.00 | 0.00 | 0.00 | 44 | 1015.9 |
| 20260507021310 | 51 | 169 | 0.0 | 0.0 | 0.00 | 0.00 | 0.00 | 43 | 1015.9 |
| 20260507020808 | 51 | 166 | 0.0 | 0.0 | 0.00 | 0.00 | 0.00 | 44 | 1015.9 |
| 20260507020304 | 52 | 169 | 0.0 | 0.0 | 0.00 | 0.00 | 0.00 | 43 | 1015.7 |
| 20260507015802 | 51 | 171 | 0.0 | 0.0 | 0.00 | 0.00 | 0.00 | 42 | 1016.0 |
| 20260507015259 | 52 | 174 | 0.0 | 0.0 | 0.00 | 0.00 | 0.00 | 42 | 1015.9 |
| 20260507014756 | 53 | 165 | 0.0 | 0.0 | 0.00 | 0.00 | 0.00 | 41 | 1015.8 |
| 20260507014252 | 53 | 169 | 0.0 | 0.0 | 0.00 | 0.00 | 0.00 | 40 | 1015.9 |
| 20260507013749 | 53 | 172 | 0.0 | 0.0 | 0.00 | 0.00 | 0.00 | 40 | 1015.9 |
| 20260507013247 | 54 | 171 | 0.0 | 0.0 | 0.00 | 0.00 | 0.00 | 39 | 1015.9 |
| 20260507012744 | 54 | 165 | 0.0 | 0.0 | 0.00 | 0.00 | 0.00 | 39 | 1015.8 |
| 20260507012244 | 55 | 175 | 0.0 | 0.0 | 0.00 | 0.00 | 0.00 | 38 | 1015.7 |
| 20260507011742 | 56 | 171 | 0.0 | 0.0 | 0.00 | 0.00 | 0.00 | 36 | 1015.9 |
| 20260507011239 | 56 | 174 | 0.0 | 0.0 | 0.00 | 0.00 | 0.00 | 36 | 1015.8 |
| 20260507010738 | 57 | 168 | 0.0 | 0.0 | 0.00 | 0.00 | 0.00 | 34 | 1015.7 |
| 20260507010234 | 57 | 166 | 0.0 | 0.0 | 0.00 | 0.00 | 0.00 | 32 | 1015.8 |
| 20260507005732 | 57 | 179 | 0.0 | 2.0 | 0.00 | 0.00 | 0.00 | 33 | 1015.7 |
| 20260507005228 | 58 | 171 | 0.0 | 0.0 | 0.00 | 0.00 | 0.00 | 33 | 1015.7 |
| 20260507004725 | 58 | 172 | 0.0 | 0.0 | 0.00 | 0.00 | 0.00 | 32 | 1015.9 |
| 20260507004223 | 59 | 177 | 1.0 | 2.0 | 0.00 | 0.00 | 0.00 | 31 | 1015.8 |
| 20260507003719 | 59 | 185 | 0.0 | 2.0 | 0.00 | 0.00 | 0.00 | 31 | 1015.8 |
| 20260507003214 | 59 | 188 | 0.0 | 2.0 | 0.00 | 0.00 | 0.00 | 31 | 1015.9 |
| 20260507002710 | 59 | 129 | 0.0 | 1.0 | 0.00 | 0.00 | 0.00 | 30 | 1015.9 |
| 20260507002206 | 59 | 197 | 1.0 | 3.0 | 0.00 | 0.00 | 0.00 | 30 | 1015.8 |
| 20260507001703 | 59 | 213 | 0.0 | 0.0 | 0.00 | 0.00 | 0.00 | 30 | 1015.9 |
| 20260507001201 | 59 | 164 | 0.0 | 6.0 | 0.00 | 0.00 | 0.00 | 30 | 1016.0 |
| 20260507000657 | 60 | 210 | 2.0 | 3.0 | 0.00 | 0.00 | 0.00 | 30 | 1016.2 |
| 20260507000152 | 60 | 4 | 6.0 | 9.0 | 0.00 | 0.00 | 0.00 | 30 | 1016.0 |
| 20260506235650 | 60 | 133 | 3.0 | 9.0 | 0.00 | 0.00 | 0.00 | 30 | 1016.3 |
| 20260506235145 | 61 | 326 | 3.0 | 7.0 | 0.00 | 0.00 | 0.00 | 30 | 1016.2 |
| 20260506234642 | 61 | 177 | 3.0 | 7.0 | 0.00 | 0.00 | 0.00 | 30 | 1016.1 |
| 20260506234139 | 61 | 123 | 1.0 | 3.0 | 0.00 | 0.00 | 0.00 | 29 | 1016.3 |
| 20260506233636 | 60 | 178 | 2.0 | 2.0 | 0.00 | 0.00 | 0.00 | 30 | 1016.1 |
| 20260506233133 | 61 | 134 | 2.0 | 3.0 | 0.00 | 0.00 | 0.00 | 30 | 1016.4 |
| 20260506232629 | 61 | 90 | 8.0 | 9.0 | 0.00 | 0.00 | 0.00 | 29 | 1016.3 |
| 20260506232125 | 60 | 171 | 1.0 | 2.0 | 0.00 | 0.00 | 0.00 | 30 | 1016.2 |
| 20260506231622 | 60 | 62 | 4.0 | 9.0 | 0.00 | 0.00 | 0.00 | 31 | 1016.4 |
| 20260506231121 | 60 | 336 | 6.0 | 9.0 | 0.00 | 0.00 | 0.00 | 30 | 1016.5 |
| 20260506230617 | 61 | 11 | 6.0 | 8.0 | 0.00 | 0.00 | 0.00 | 29 | 1016.5 |
| 20260506230114 | 61 | 345 | 4.0 | 7.0 | 0.00 | 0.00 | 0.00 | 29 | 1016.5 |
| 20260506225610 | 61 | 296 | 4.0 | 8.0 | 0.00 | 0.00 | 0.00 | 29 | 1016.6 |
| 20260506225107 | 60 | 179 | 2.0 | 2.0 | 0.00 | 0.00 | 0.00 | 30 | 1016.6 |
| 20260506224604 | 61 | 205 | 4.0 | 10.0 | 0.00 | 0.00 | 0.00 | 30 | 1016.5 |
| 20260506224100 | 61 | 200 | 3.0 | 13.0 | 0.00 | 0.00 | 0.00 | 30 | 1016.7 |
| 20260506223556 | 60 | 359 | 5.0 | 6.0 | 0.00 | 0.00 | 0.00 | 29 | 1016.5 |
| 20260506223053 | 60 | 317 | 4.0 | 10.0 | 0.00 | 0.00 | 0.00 | 29 | 1016.8 |
| 20260506222550 | 60 | 177 | 1.0 | 6.0 | 0.00 | 0.00 | 0.00 | 30 | 1016.7 |
| 20260506222046 | 60 | 185 | 3.0 | 7.0 | 0.00 | 0.00 | 0.00 | 29 | 1016.8 |
| 20260506221544 | 60 | 195 | 3.0 | 14.0 | 0.00 | 0.00 | 0.00 | 30 | 1017.0 |
| 20260506221042 | 59 | 34 | 3.0 | 11.0 | 0.00 | 0.00 | 0.00 | 31 | 1016.8 |
| 20260506220537 | 60 | 90 | 3.0 | 8.0 | 0.00 | 0.00 | 0.00 | 31 | 1016.8 |
| 20260506220033 | 60 | 163 | 0.0 | 9.0 | 0.00 | 0.00 | 0.00 | 30 | 1017.0 |
| 20260506215530 | 60 | 154 | 4.0 | 6.0 | 0.00 | 0.00 | 0.00 | 30 | 1016.9 |
| 20260506215026 | 60 | 246 | 4.0 | 6.0 | 0.00 | 0.00 | 0.00 | 30 | 1016.9 |
| 20260506214523 | 59 | 223 | 4.0 | 8.0 | 0.00 | 0.00 | 0.00 | 30 | 1017.1 |
| 20260506214020 | 60 | 169 | 2.0 | 6.0 | 0.00 | 0.00 | 0.00 | 30 | 1016.9 |
| 20260506213518 | 60 | 2 | 7.0 | 10.0 | 0.00 | 0.00 | 0.00 | 29 | 1017.2 |
| 20260506213015 | 61 | 347 | 3.0 | 14.0 | 0.00 | 0.00 | 0.00 | 30 | 1017.4 |
| 20260506212512 | 59 | 270 | 11.0 | 13.0 | 0.00 | 0.00 | 0.00 | 31 | 1016.9 |
| 20260506212007 | 59 | 235 | 8.0 | 14.0 | 0.00 | 0.00 | 0.00 | 30 | 1017.2 |
| 20260506211502 | 60 | 159 | 3.0 | 7.0 | 0.00 | 0.00 | 0.00 | 30 | 1017.5 |
| 20260506211000 | 61 | 225 | 3.0 | 7.0 | 0.00 | 0.00 | 0.00 | 30 | 1017.4 |
| 20260506210456 | 60 | 204 | 3.0 | 7.0 | 0.00 | 0.00 | 0.00 | 32 | 1017.6 |
| 20260506205953 | 58 | 157 | 1.0 | 4.0 | 0.00 | 0.00 | 0.00 | 31 | 1017.7 |
| 20260506205449 | 58 | 27 | 10.0 | 13.0 | 0.00 | 0.00 | 0.00 | 32 | 1017.6 |
| 20260506204945 | 58 | 7 | 3.0 | 6.0 | 0.00 | 0.00 | 0.00 | 32 | 1017.7 |
| 20260506204444 | 59 | 173 | 3.0 | 6.0 | 0.00 | 0.00 | 0.00 | 31 | 1017.8 |
| 20260506203941 | 58 | 153 | 3.0 | 7.0 | 0.00 | 0.00 | 0.00 | 32 | 1017.8 |
| 20260506203438 | 59 | 222 | 4.0 | 8.0 | 0.00 | 0.00 | 0.00 | 31 | 1018.0 |
| 20260506202935 | 58 | 102 | 7.0 | 9.0 | 0.00 | 0.00 | 0.00 | 32 | 1018.0 |
| 20260506202432 | 58 | 225 | 4.0 | 8.0 | 0.00 | 0.00 | 0.00 | 32 | 1018.4 |
| 20260506201928 | 57 | 167 | 3.0 | 7.0 | 0.00 | 0.00 | 0.00 | 33 | 1018.1 |
| 20260506201426 | 57 | 47 | 5.0 | 7.0 | 0.00 | 0.00 | 0.00 | 32 | 1018.2 |
| 20260506200922 | 58 | 239 | 8.0 | 10.0 | 0.00 | 0.00 | 0.00 | 31 | 1018.1 |
| 20260506200419 | 58 | 269 | 6.0 | 8.0 | 0.00 | 0.00 | 0.00 | 31 | 1018.3 |
| 20260506195915 | 57 | 0 | 5.0 | 14.0 | 0.00 | 0.00 | 0.00 | 33 | 1018.4 |
| 20260506195412 | 58 | 300 | 4.0 | 11.0 | 0.00 | 0.00 | 0.00 | 32 | 1018.4 |
| 20260506194909 | 59 | 152 | 4.0 | 10.0 | 0.00 | 0.00 | 0.00 | 32 | 1018.4 |
| 20260506194406 | 59 | 31 | 4.0 | 8.0 | 0.00 | 0.00 | 0.00 | 32 | 1018.3 |
| 20260506193903 | 59 | 192 | 1.0 | 8.0 | 0.00 | 0.00 | 0.00 | 31 | 1018.5 |
| 20260506193400 | 57 | 349 | 2.0 | 8.0 | 0.00 | 0.00 | 0.00 | 33 | 1018.4 |
| 20260506192856 | 57 | 174 | 3.0 | 9.0 | 0.00 | 0.00 | 0.00 | 34 | 1018.5 |
| 20260506192353 | 58 | 158 | 4.0 | 15.0 | 0.00 | 0.00 | 0.00 | 32 | 1018.6 |
| 20260506191850 | 58 | 354 | 12.0 | 17.0 | 0.00 | 0.00 | 0.00 | 32 | 1018.4 |
| 20260506191346 | 58 | 16 | 7.0 | 11.0 | 0.00 | 0.00 | 0.00 | 34 | 1018.5 |
| 20260506190843 | 58 | 219 | 6.0 | 10.0 | 0.00 | 0.00 | 0.00 | 32 | 1018.4 |
| 20260506190340 | 58 | 47 | 4.0 | 7.0 | 0.00 | 0.00 | 0.00 | 32 | 1018.4 |
| 20260506185837 | 57 | 167 | 0.0 | 8.0 | 0.00 | 0.00 | 0.00 | 33 | 1018.4 |
| 20260506185334 | 56 | 205 | 3.0 | 6.0 | 0.00 | 0.00 | 0.00 | 33 | 1018.6 |
| 20260506184831 | 57 | 224 | 4.0 | 8.0 | 0.00 | 0.00 | 0.00 | 34 | 1018.7 |
| 20260506184328 | 57 | 158 | 1.0 | 6.0 | 0.00 | 0.00 | 0.00 | 33 | 1018.7 |
| 20260506183826 | 58 | 170 | 2.0 | 8.0 | 0.00 | 0.00 | 0.00 | 33 | 1018.9 |
| 20260506183320 | 58 | 199 | 4.0 | 11.0 | 0.00 | 0.00 | 0.00 | 33 | 1019.1 |
| 20260506182818 | 57 | 181 | 7.0 | 11.0 | 0.00 | 0.00 | 0.00 | 34 | 1018.9 |
| 20260506182315 | 57 | 241 | 6.0 | 8.0 | 0.00 | 0.00 | 0.00 | 33 | 1019.0 |
| 20260506181813 | 57 | 189 | 3.0 | 6.0 | 0.00 | 0.00 | 0.00 | 33 | 1019.0 |
| 20260506181310 | 56 | 312 | 4.0 | 8.0 | 0.00 | 0.00 | 0.00 | 35 | 1019.0 |
| 20260506180807 | 56 | 276 | 6.0 | 11.0 | 0.00 | 0.00 | 0.00 | 35 | 1019.1 |
| 20260506180303 | 56 | 310 | 6.0 | 7.0 | 0.00 | 0.00 | 0.00 | 36 | 1019.1 |
| 20260506175759 | 57 | 180 | 3.0 | 6.0 | 0.00 | 0.00 | 0.00 | 35 | 1019.1 |
| 20260506175256 | 56 | 52 | 4.0 | 8.0 | 0.00 | 0.00 | 0.00 | 34 | 1019.4 |
| 20260506174754 | 55 | 337 | 5.0 | 7.0 | 0.00 | 0.00 | 0.00 | 37 | 1019.2 |
| 20260506174251 | 56 | 106 | 0.0 | 3.0 | 0.00 | 0.00 | 0.00 | 35 | 1019.4 |
| 20260506173749 | 55 | 283 | 8.0 | 10.0 | 0.00 | 0.00 | 0.00 | 36 | 1019.6 |
| 20260506173245 | 55 | 192 | 2.0 | 6.0 | 0.00 | 0.00 | 0.00 | 37 | 1019.7 |
| 20260506172742 | 55 | 209 | 4.0 | 7.0 | 0.00 | 0.00 | 0.00 | 37 | 1019.5 |
| 20260506172238 | 54 | 179 | 5.0 | 7.0 | 0.00 | 0.00 | 0.00 | 37 | 1019.7 |
| 20260506171736 | 54 | 20 | 4.0 | 8.0 | 0.00 | 0.00 | 0.00 | 37 | 1019.7 |
| 20260506171233 | 54 | 291 | 6.0 | 10.0 | 0.00 | 0.00 | 0.00 | 37 | 1019.7 |
| 20260506170731 | 55 | 353 | 7.0 | 11.0 | 0.00 | 0.00 | 0.00 | 35 | 1019.6 |
| 20260506170227 | 55 | 143 | 4.0 | 8.0 | 0.00 | 0.00 | 0.00 | 35 | 1019.7 |
| 20260506165726 | 55 | 354 | 3.0 | 9.0 | 0.00 | 0.00 | 0.00 | 35 | 1019.7 |
| 20260506165222 | 55 | 208 | 4.0 | 8.0 | 0.00 | 0.00 | 0.00 | 36 | 1019.7 |
| 20260506164720 | 54 | 137 | 1.0 | 4.0 | 0.00 | 0.00 | 0.00 | 37 | 1019.9 |
| 20260506164217 | 53 | 179 | 1.0 | 8.0 | 0.00 | 0.00 | 0.00 | 37 | 1019.8 |
| 20260506163713 | 53 | 36 | 7.0 | 14.0 | 0.00 | 0.00 | 0.00 | 38 | 1019.8 |
| 20260506163208 | 54 | 336 | 7.0 | 9.0 | 0.00 | 0.00 | 0.00 | 37 | 1019.8 |
| 20260506162704 | 54 | 234 | 2.0 | 14.0 | 0.00 | 0.00 | 0.00 | 38 | 1020.0 |
| 20260506162202 | 54 | 153 | 1.0 | 7.0 | 0.00 | 0.00 | 0.00 | 38 | 1019.9 |
| 20260506161659 | 53 | 173 | 1.0 | 2.0 | 0.00 | 0.00 | 0.00 | 39 | 1019.7 |
| 20260506161155 | 53 | 147 | 1.0 | 4.0 | 0.00 | 0.00 | 0.00 | 39 | 1019.9 |
| 20260506160654 | 53 | 144 | 3.0 | 3.0 | 0.00 | 0.00 | 0.00 | 40 | 1019.7 |
| 20260506160150 | 52 | 27 | 6.0 | 8.0 | 0.00 | 0.00 | 0.00 | 41 | 1019.8 |
| 20260506155649 | 53 | 20 | 5.0 | 9.0 | 0.00 | 0.00 | 0.00 | 40 | 1020.0 |
| 20260506155145 | 51 | 28 | 5.0 | 8.0 | 0.00 | 0.00 | 0.00 | 42 | 1020.0 |
| 20260506153247 | 51 | 181 | 2.0 | 7.0 | 0.00 | 0.00 | 0.00 | 41 | 1020.0 |
| 20260506152744 | 51 | 305 | 4.0 | 4.0 | 0.00 | 0.00 | 0.00 | 41 | 1019.8 |
| 20260506152242 | 51 | 126 | 2.0 | 7.0 | 0.00 | 0.00 | 0.00 | 44 | 1019.8 |
| 20260506151741 | 51 | 159 | 3.0 | 7.0 | 0.00 | 0.00 | 0.00 | 41 | 1019.8 |
| 20260506151237 | 51 | 52 | 3.0 | 9.0 | 0.00 | 0.00 | 0.00 | 41 | 1020.0 |
| 20260506150733 | 51 | 185 | 0.0 | 4.0 | 0.00 | 0.00 | 0.00 | 43 | 1019.6 |
| 20260506150231 | 51 | 113 | 0.0 | 6.0 | 0.00 | 0.00 | 0.00 | 43 | 1019.9 |
| 20260506145728 | 51 | 78 | 2.0 | 7.0 | 0.00 | 0.00 | 0.00 | 42 | 1020.0 |
| 20260506145224 | 50 | 5 | 4.0 | 10.0 | 0.00 | 0.00 | 0.00 | 44 | 1019.9 |
| 20260506144722 | 49 | 208 | 6.0 | 7.0 | 0.00 | 0.00 | 0.00 | 43 | 1019.9 |
| 20260506144219 | 50 | 142 | 1.0 | 8.0 | 0.00 | 0.00 | 0.00 | 44 | 1019.9 |
| 20260506143716 | 50 | 160 | 1.0 | 3.0 | 0.00 | 0.00 | 0.00 | 44 | 1019.9 |
| 20260506143214 | 50 | 152 | 1.0 | 6.0 | 0.00 | 0.00 | 0.00 | 44 | 1020.0 |
| 20260506142712 | 49 | 142 | 0.0 | 0.0 | 0.00 | 0.00 | 0.00 | 46 | 1019.8 |
| 20260506142209 | 49 | 198 | 4.0 | 6.0 | 0.00 | 0.00 | 0.00 | 45 | 1019.8 |
| 20260506141707 | 49 | 125 | 0.0 | 2.0 | 0.00 | 0.00 | 0.00 | 47 | 1019.8 |
| 20260506141205 | 49 | 197 | 3.0 | 6.0 | 0.00 | 0.00 | 0.00 | 46 | 1019.7 |
| 20260506140703 | 48 | 103 | 1.0 | 2.0 | 0.00 | 0.00 | 0.00 | 49 | 1019.8 |
| 20260506140159 | 48 | 165 | 0.0 | 2.0 | 0.00 | 0.00 | 0.00 | 48 | 1019.6 |
| 20260506135656 | 48 | 94 | 1.0 | 3.0 | 0.00 | 0.00 | 0.00 | 48 | 1019.5 |
| 20260506135152 | 47 | 66 | 2.0 | 3.0 | 0.00 | 0.00 | 0.00 | 48 | 1019.4 |
| 20260506134649 | 46 | 124 | 2.0 | 4.0 | 0.00 | 0.00 | 0.00 | 49 | 1019.6 |
| 20260506134145 | 46 | 97 | 2.0 | 3.0 | 0.00 | 0.00 | 0.00 | 50 | 1019.3 |
| 20260506133643 | 46 | 120 | 1.0 | 4.0 | 0.00 | 0.00 | 0.00 | 51 | 1019.4 |
| 20260506133139 | 45 | 159 | 3.0 | 4.0 | 0.00 | 0.00 | 0.00 | 53 | 1019.6 |
| 20260506132637 | 45 | 73 | 3.0 | 4.0 | 0.00 | 0.00 | 0.00 | 55 | 1019.6 |
| 20260506132133 | 44 | 91 | 2.0 | 3.0 | 0.00 | 0.00 | 0.00 | 55 | 1019.2 |
| 20260506131631 | 44 | 184 | 3.0 | 4.0 | 0.00 | 0.00 | 0.00 | 56 | 1019.3 |
| 20260506131127 | 43 | 160 | 0.0 | 3.0 | 0.00 | 0.00 | 0.00 | 57 | 1019.3 |
| 20260506130624 | 43 | 100 | 2.0 | 3.0 | 0.00 | 0.00 | 0.00 | 58 | 1019.3 |
| 20260506130122 | 42 | 73 | 3.0 | 6.0 | 0.00 | 0.00 | 0.00 | 58 | 1019.2 |
| 20260506125620 | 42 | 5 | 3.0 | 4.0 | 0.00 | 0.00 | 0.00 | 60 | 1019.1 |
| 20260506125117 | 41 | 56 | 3.0 | 4.0 | 0.00 | 0.00 | 0.00 | 62 | 1019.3 |
| 20260506124615 | 41 | 47 | 2.0 | 3.0 | 0.00 | 0.00 | 0.00 | 63 | 1019.1 |
| 20260506124112 | 41 | 32 | 4.0 | 4.0 | 0.00 | 0.00 | 0.00 | 64 | 1019.0 |
| 20260506123610 | 41 | 108 | 2.0 | 3.0 | 0.00 | 0.00 | 0.00 | 65 | 1018.9 |
| 20260506123108 | 41 | 94 | 2.0 | 3.0 | 0.00 | 0.00 | 0.00 | 66 | 1018.8 |
| 20260506122604 | 40 | 29 | 2.0 | 3.0 | 0.00 | 0.00 | 0.00 | 66 | 1018.7 |
| 20260506122103 | 40 | 161 | 0.0 | 1.0 | 0.00 | 0.00 | 0.00 | 67 | 1018.5 |
| 20260506121600 | 39 | 141 | 0.0 | 0.0 | 0.00 | 0.00 | 0.00 | 69 | 1018.7 |
| 20260506121056 | 39 | 123 | 0.0 | 0.0 | 0.00 | 0.00 | 0.00 | 69 | 1018.5 |
| 20260506120554 | 39 | 139 | 0.0 | 2.0 | 0.00 | 0.00 | 0.00 | 70 | 1018.4 |
| 20260506120051 | 38 | 176 | 0.0 | 0.0 | 0.00 | 0.00 | 0.00 | 70 | 1018.5 |
| 20260506115549 | 38 | 138 | 0.0 | 0.0 | 0.00 | 0.00 | 0.00 | 70 | 1018.4 |
| 20260506115047 | 37 | 163 | 0.0 | 0.0 | 0.00 | 0.00 | 0.00 | 71 | 1018.1 |
| 20260506114544 | 37 | 165 | 0.0 | 0.0 | 0.00 | 0.00 | 0.00 | 71 | 1018.0 |
| 20260506114042 | 37 | 166 | 0.0 | 0.0 | 0.00 | 0.00 | 0.00 | 71 | 1018.2 |
| 20260506113540 | 37 | 165 | 0.0 | 0.0 | 0.00 | 0.00 | 0.00 | 70 | 1017.8 |
| 20260506113037 | 37 | 169 | 0.0 | 0.0 | 0.00 | 0.00 | 0.00 | 70 | 1018.0 |
| 20260506112534 | 36 | 166 | 0.0 | 0.0 | 0.00 | 0.00 | 0.00 | 70 | 1017.7 |
| 20260506112031 | 37 | 166 | 0.0 | 0.0 | 0.00 | 0.00 | 0.00 | 68 | 1018.1 |
| 20260506111529 | 37 | 169 | 0.0 | 0.0 | 0.00 | 0.00 | 0.00 | 68 | 1017.9 |
| 20260506111026 | 37 | 169 | 0.0 | 0.0 | 0.00 | 0.00 | 0.00 | 67 | 1017.9 |
| 20260506110524 | 38 | 174 | 0.0 | 0.0 | 0.00 | 0.00 | 0.00 | 66 | 1017.9 |
| 20260506110021 | 39 | 165 | 0.0 | 0.0 | 0.00 | 0.00 | 0.00 | 65 | 1018.0 |
| 20260506105517 | 39 | 168 | 0.0 | 0.0 | 0.00 | 0.00 | 0.00 | 64 | 1018.2 |
| 20260506105014 | 39 | 165 | 0.0 | 0.0 | 0.00 | 0.00 | 0.00 | 63 | 1017.7 |
| 20260506104512 | 40 | 174 | 0.0 | 0.0 | 0.00 | 0.00 | 0.00 | 62 | 1017.9 |
| 20260506104010 | 40 | 172 | 0.0 | 0.0 | 0.00 | 0.00 | 0.00 | 62 | 1017.8 |
| 20260506103507 | 40 | 168 | 0.0 | 0.0 | 0.00 | 0.00 | 0.00 | 62 | 1017.7 |
| 20260506103003 | 40 | 167 | 0.0 | 0.0 | 0.00 | 0.00 | 0.00 | 61 | 1017.8 |
| 20260506102502 | 40 | 172 | 0.0 | 0.0 | 0.00 | 0.00 | 0.00 | 61 | 1017.6 |
| 20260506101959 | 40 | 173 | 0.0 | 0.0 | 0.00 | 0.00 | 0.00 | 61 | 1017.7 |
| 20260506101455 | 41 | 169 | 0.0 | 0.0 | 0.00 | 0.00 | 0.00 | 61 | 1017.5 |
| 20260506100952 | 41 | 172 | 0.0 | 0.0 | 0.00 | 0.00 | 0.00 | 61 | 1017.6 |
| 20260506100451 | 40 | 167 | 0.0 | 0.0 | 0.00 | 0.00 | 0.00 | 61 | 1017.8 |
| 20260506095948 | 41 | 165 | 0.0 | 0.0 | 0.00 | 0.00 | 0.00 | 61 | 1017.6 |
| 20260506095447 | 41 | 169 | 0.0 | 0.0 | 0.00 | 0.00 | 0.00 | 61 | 1017.6 |
| 20260506094942 | 41 | 166 | 0.0 | 0.0 | 0.00 | 0.00 | 0.00 | 60 | 1017.2 |
| 20260506094441 | 42 | 166 | 0.0 | 0.0 | 0.00 | 0.00 | 0.00 | 59 | 1017.5 |
| 20260506093938 | 42 | 165 | 0.0 | 0.0 | 0.00 | 0.00 | 0.00 | 58 | 1017.4 |